When you browse on this site, cookies collect data to enhance your experience and personalize the content and advertising you see.
Visit our Privacy Policy to learn more. By continuing to use the site, you agree to this use of cookies and data.
  • In Schweiz
  • Länderverzeichnis
  • Für 7 Tage
  • Wassertemperatur
  • Wetterkarte
  • Widgets
  • user-avatar
    Anmelden

    Stündliche Wetter Lloret de Mar

    Heute, 13 Dezember, Freitag

    Zeit Temperatur Niederschläge Wind Luftdruck Luftfeuchtigkeit
    00:00 +7°C° 0 mm 6 m/S 749 mmHg 88%
    01:00 +7°C° 0 mm 6 m/S 748 mmHg 86%
    02:00 +7°C° 0 mm 5 m/S 748 mmHg 84%
    03:00 +7°C° 0 mm 5 m/S 747 mmHg 82%
    04:00 +7°C° 0 mm 5 m/S 747 mmHg 81%
    05:00 +7°C° 0 mm 5 m/S 746 mmHg 79%
    06:00 +7°C° 0 mm 5 m/S 746 mmHg 78%
    07:00 +9°C° 0 mm 5 m/S 746 mmHg 76%
    08:00 +11°C° 0 mm 4 m/S 746 mmHg 74%
    09:00 +12°C° 0 mm 4 m/S 746 mmHg 73%
    10:00 +14°C° 0 mm 4 m/S 747 mmHg 68%
    11:00 +15°C° 0 mm 4 m/S 747 mmHg 63%
    12:00 +18°C° 0 mm 4 m/S 747 mmHg 58%
    13:00 +18°C° 0 mm 3 m/S 747 mmHg 61%
    14:00 +17°C° 0 mm 3 m/S 748 mmHg 65%
    15:00 +17°C° 0 mm 3 m/S 748 mmHg 69%
    16:00 +14°C° 0 mm 3 m/S 749 mmHg 74%
    17:00 +14°C° 0 mm 2 m/S 749 mmHg 80%
    18:00 +12°C° 0 mm 2 m/S 750 mmHg 85%
    19:00 +12°C° 0 mm 2 m/S 751 mmHg 86%
    20:00 +10°C° 0 mm 2 m/S 751 mmHg 87%
    21:00 +10°C° 0 mm 2 m/S 752 mmHg 88%
    22:00 +10°C° 0 mm 2 m/S 752 mmHg 87%
    23:00 +10°C° 0 mm 2 m/S 753 mmHg 87%

    Morgen, 14 Dezember, Samstag

    Zeit Temperatur Niederschläge Wind Luftdruck Luftfeuchtigkeit
    00:00 +10°C° 0 mm 2 m/S 753 mmHg 87%
    01:00 +10°C° 0 mm 2 m/S 753 mmHg 87%
    02:00 +10°C° 0 mm 2 m/S 753 mmHg 87%
    03:00 +10°C° 0 mm 2 m/S 753 mmHg 87%
    04:00 +10°C° 0 mm 2 m/S 754 mmHg 86%
    05:00 +10°C° 0 mm 2 m/S 754 mmHg 85%
    06:00 +9°C° 0 mm 2 m/S 755 mmHg 84%
    07:00 +12°C° 0 mm 2 m/S 756 mmHg 80%
    08:00 +13°C° 0 mm 2 m/S 756 mmHg 76%
    09:00 +14°C° 0 mm 2 m/S 757 mmHg 73%
    10:00 +15°C° 0 mm 2 m/S 757 mmHg 70%
    11:00 +18°C° 0 mm 1 m/S 757 mmHg 67%
    12:00 +19°C° 0 mm 1 m/S 757 mmHg 65%
    13:00 +18°C° 0 mm 1 m/S 757 mmHg 69%
    14:00 +18°C° 0 mm 1 m/S 757 mmHg 73%
    15:00 +17°C° 0 mm 2 m/S 757 mmHg 76%
    16:00 +15°C° 0 mm 1 m/S 758 mmHg 81%
    17:00 +14°C° 0 mm 1 m/S 758 mmHg 85%
    18:00 +13°C° 0 mm 1 m/S 758 mmHg 90%
    19:00 +13°C° 0 mm 1 m/S 759 mmHg 90%
    20:00 +12°C° 0 mm 1 m/S 759 mmHg 91%
    21:00 +12°C° 0 mm 1 m/S 759 mmHg 91%
    22:00 +10°C° 0 mm 2 m/S 759 mmHg 91%
    23:00 +10°C° 0 mm 2 m/S 759 mmHg 90%

    übermorgen, 15 Dezember, Sonntag

    Zeit Temperatur Niederschläge Wind Luftdruck Luftfeuchtigkeit
    00:00 +10°C° 0 mm 3 m/S 759 mmHg 90%
    01:00 +10°C° 0 mm 3 m/S 759 mmHg 89%
    02:00 +10°C° 0 mm 3 m/S 758 mmHg 88%
    03:00 +9°C° 0 mm 2 m/S 758 mmHg 87%
    04:00 +9°C° 0 mm 2 m/S 758 mmHg 87%
    05:00 +9°C° 0 mm 2 m/S 758 mmHg 86%
    06:00 +9°C° 0 mm 2 m/S 758 mmHg 85%
    07:00 +10°C° 0 mm 2 m/S 758 mmHg 82%
    08:00 +12°C° 0 mm 2 m/S 759 mmHg 78%
    09:00 +13°C° 0 mm 2 m/S 759 mmHg 74%
    10:00 +13°C° 0 mm 3 m/S 759 mmHg 69%
    11:00 +16°C° 0 mm 3 m/S 759 mmHg 63%
    12:00 +17°C° 0 mm 4 m/S 758 mmHg 57%
    13:00 +17°C° 0 mm 4 m/S 758 mmHg 59%
    14:00 +16°C° 0 mm 5 m/S 758 mmHg 61%
    15:00 +16°C° 0 mm 5 m/S 757 mmHg 63%
    16:00 +14°C° 0 mm 5 m/S 757 mmHg 68%
    17:00 +12°C° 0 mm 5 m/S 757 mmHg 73%
    18:00 +10°C° 0 mm 5 m/S 758 mmHg 78%
    19:00 +9°C° 0 mm 5 m/S 758 mmHg 78%
    20:00 +9°C° 0 mm 5 m/S 758 mmHg 79%
    21:00 +10°C° 0 mm 4 m/S 758 mmHg 79%
    22:00 +10°C° 0 mm 4 m/S 758 mmHg 79%
    23:00 +10°C° 0 mm 4 m/S 757 mmHg 79%

    16 Dezember, Montag

    Zeit Temperatur Niederschläge Wind Luftdruck Luftfeuchtigkeit
    00:00 +10°C° 0 mm 4 m/S 757 mmHg 80%
    01:00 +10°C° 0 mm 4 m/S 757 mmHg 80%
    02:00 +10°C° 0 mm 4 m/S 757 mmHg 80%
    03:00 +10°C° 0 mm 4 m/S 756 mmHg 80%
    04:00 +10°C° 0 mm 4 m/S 756 mmHg 83%
    05:00 +10°C° 0 mm 4 m/S 756 mmHg 86%
    06:00 +10°C° 0 mm 4 m/S 756 mmHg 89%
    07:00 +11°C° 0 mm 3 m/S 756 mmHg 88%
    08:00 +12°C° 0 mm 3 m/S 756 mmHg 88%
    09:00 +13°C° 0 mm 3 m/S 756 mmHg 88%
    10:00 +14°C° 0 mm 3 m/S 755 mmHg 86%
    11:00 +16°C° 0 mm 3 m/S 755 mmHg 83%
    12:00 +17°C° 0 mm 2 m/S 755 mmHg 81%
    13:00 +16°C° 0 mm 3 m/S 754 mmHg 85%
    14:00 +16°C° 0 mm 3 m/S 753 mmHg 88%
    15:00 +16°C° 0 mm 3 m/S 753 mmHg 92%
    16:00 +14°C° 0 mm 3 m/S 753 mmHg 94%
    17:00 +14°C° 0 mm 3 m/S 753 mmHg 96%
    18:00 +13°C° 0 mm 3 m/S 752 mmHg 97%
    19:00 +13°C° 0 mm 3 m/S 752 mmHg 97%
    20:00 +14°C° 0 mm 2 m/S 752 mmHg 97%
    21:00 +14°C° 0 mm 2 m/S 753 mmHg 97%
    22:00 +14°C° 0 mm 2 m/S 752 mmHg 95%
    23:00 +13°C° 0 mm 2 m/S 752 mmHg 94%

    17 Dezember, Dienstag

    Zeit Temperatur Niederschläge Wind Luftdruck Luftfeuchtigkeit
    00:00 +13°C° 0 mm 2 m/S 752 mmHg 92%
    01:00 +13°C° 0 mm 2 m/S 752 mmHg 93%
    02:00 +13°C° 0 mm 2 m/S 752 mmHg 93%
    03:00 +12°C° 0 mm 3 m/S 752 mmHg 93%
    04:00 +12°C° 0 mm 3 m/S 752 mmHg 94%
    05:00 +12°C° 0 mm 3 m/S 752 mmHg 94%
    06:00 +12°C° 0 mm 3 m/S 752 mmHg 95%
    07:00 +12°C° 0 mm 3 m/S 753 mmHg 95%
    08:00 +13°C° 0 mm 3 m/S 753 mmHg 94%
    09:00 +13°C° 0 mm 3 m/S 753 mmHg 93%
    10:00 +14°C° 0.1 mm 3 m/S 753 mmHg 91%
    11:00 +16°C° 0.1 mm 2 m/S 754 mmHg 88%
    12:00 +17°C° 0.1 mm 2 m/S 754 mmHg 85%
    13:00 +16°C° 0.1 mm 2 m/S 754 mmHg 85%
    14:00 +16°C° 0.1 mm 3 m/S 754 mmHg 86%
    15:00 +16°C° 0.1 mm 3 m/S 754 mmHg 87%
    16:00 +14°C° 0.1 mm 3 m/S 754 mmHg 89%
    17:00 +13°C° 0.1 mm 4 m/S 755 mmHg 92%
    18:00 +13°C° 0.1 mm 4 m/S 755 mmHg 95%
    19:00 +13°C° 0.2 mm 5 m/S 756 mmHg 95%
    20:00 +13°C° 0.2 mm 5 m/S 756 mmHg 95%
    21:00 +13°C° 0.2 mm 5 m/S 756 mmHg 95%
    22:00 +13°C° 0.6 mm 6 m/S 756 mmHg 96%
    23:00 +13°C° 0.6 mm 6 m/S 756 mmHg 96%

    18 Dezember, Mittwoch

    Zeit Temperatur Niederschläge Wind Luftdruck Luftfeuchtigkeit
    00:00 +14°C° 0.6 mm 7 m/S 756 mmHg 96%
    01:00 +14°C° 0.3 mm 6 m/S 756 mmHg 95%
    02:00 +13°C° 0.3 mm 6 m/S 756 mmHg 95%
    03:00 +13°C° 0.3 mm 6 m/S 756 mmHg 95%
    04:00 +13°C° 0.2 mm 6 m/S 756 mmHg 95%
    05:00 +13°C° 0.2 mm 6 m/S 757 mmHg 95%
    06:00 +14°C° 0.2 mm 6 m/S 757 mmHg 95%
    07:00 +14°C° 0.3 mm 6 m/S 757 mmHg 94%
    08:00 +14°C° 0.3 mm 6 m/S 758 mmHg 93%
    09:00 +14°C° 0.3 mm 6 m/S 758 mmHg 93%
    10:00 +14°C° 0.2 mm 6 m/S 758 mmHg 90%
    11:00 +15°C° 0.2 mm 7 m/S 758 mmHg 87%
    12:00 +15°C° 0.2 mm 7 m/S 758 mmHg 84%
    13:00 +15°C° 0.4 mm 6 m/S 758 mmHg 85%
    14:00 +15°C° 0.4 mm 6 m/S 758 mmHg 85%
    15:00 +15°C° 0.4 mm 6 m/S 757 mmHg 85%
    16:00 +14°C° 0.6 mm 6 m/S 758 mmHg 88%
    17:00 +14°C° 0.6 mm 6 m/S 758 mmHg 92%
    18:00 +13°C° 0.6 mm 6 m/S 758 mmHg 95%
    19:00 +13°C° 1.1 mm 6 m/S 758 mmHg 94%
    20:00 +13°C° 1.1 mm 6 m/S 758 mmHg 94%
    21:00 +13°C° 1.1 mm 6 m/S 758 mmHg 93%
    22:00 +13°C° 1 mm 6 m/S 758 mmHg 94%
    23:00 +13°C° 1 mm 6 m/S 758 mmHg 95%
    Mehr zeigen